| time (UTC) | temp F | wind direction | speed MPH | gust MPH | rain 1hr in | rain 24hr in | rain mn in | humidity % | barometer mb |
| 20260507172026 | 63 | 328 | 1.0 | 10.0 | 0.00 | 0.10 | 0.01 | 49 | 1016.2 |
| 20260507171604 | 64 | 355 | 3.0 | 10.0 | 0.00 | 0.10 | 0.01 | 56 | 1016.3 |
| 20260507171029 | 63 | 304 | 1.0 | 6.0 | 0.00 | 0.10 | 0.01 | 57 | 1016.4 |
| 20260507170527 | 63 | 57 | 2.0 | 8.0 | 0.00 | 0.10 | 0.01 | 57 | 1016.4 |
| 20260507170046 | 63 | 360 | 3.0 | 8.0 | 0.00 | 0.10 | 0.01 | 54 | 1016.5 |
| 20260507165526 | 63 | 78 | 3.0 | 10.0 | 0.00 | 0.10 | 0.01 | 54 | 1016.6 |
| 20260507165026 | 63 | 308 | 4.0 | 10.0 | 0.00 | 0.10 | 0.01 | 52 | 1016.6 |
| 20260507164600 | 63 | 270 | 2.0 | 9.0 | 0.00 | 0.10 | 0.01 | 57 | 1016.8 |
| 20260507164029 | 63 | 351 | 4.0 | 9.0 | 0.00 | 0.10 | 0.01 | 52 | 1016.8 |
| 20260507163529 | 63 | 355 | 1.0 | 12.0 | 0.00 | 0.10 | 0.01 | 56 | 1016.8 |
| 20260507163042 | 63 | 344 | 3.0 | 12.0 | 0.00 | 0.10 | 0.01 | 59 | 1016.8 |
| 20260507162529 | 62 | 338 | 3.0 | 8.0 | 0.00 | 0.10 | 0.01 | 59 | 1016.8 |
| 20260507162029 | 62 | 341 | 2.0 | 10.0 | 0.00 | 0.10 | 0.01 | 60 | 1016.8 |
| 20260507161547 | 62 | 82 | 2.0 | 10.0 | 0.00 | 0.10 | 0.01 | 59 | 1016.8 |
| 20260507161028 | 62 | 52 | 3.0 | 8.0 | 0.00 | 0.10 | 0.01 | 59 | 1016.7 |
| 20260507160529 | 62 | 68 | 4.0 | 8.0 | 0.00 | 0.10 | 0.01 | 58 | 1016.7 |
| 20260507160048 | 62 | 360 | 2.0 | 9.0 | 0.00 | 0.10 | 0.01 | 61 | 1016.8 |
| 20260507155528 | 62 | 336 | 4.0 | 9.0 | 0.00 | 0.10 | 0.01 | 58 | 1016.8 |
| 20260507155028 | 62 | 298 | 2.0 | 8.0 | 0.00 | 0.10 | 0.01 | 61 | 1016.8 |
| 20260507154547 | 62 | 300 | 2.0 | 8.0 | 0.00 | 0.10 | 0.01 | 62 | 1016.7 |
| 20260507154026 | 61 | 261 | 1.0 | 8.0 | 0.00 | 0.10 | 0.01 | 64 | 1016.7 |
| 20260507153529 | 61 | 270 | 2.0 | 8.0 | 0.00 | 0.10 | 0.01 | 62 | 1016.7 |
| 20260507153049 | 60 | 72 | 2.0 | 9.0 | 0.00 | 0.10 | 0.01 | 59 | 1016.7 |
| 20260507152529 | 61 | 48 | 3.0 | 10.0 | 0.00 | 0.10 | 0.01 | 59 | 1016.7 |
| 20260507152029 | 61 | 11 | 3.0 | 10.0 | 0.00 | 0.10 | 0.01 | 58 | 1016.8 |
| 20260507151544 | 61 | 360 | 4.0 | 9.0 | 0.00 | 0.10 | 0.01 | 61 | 1016.8 |
| 20260507151029 | 61 | 17 | 2.0 | 8.0 | 0.00 | 0.10 | 0.01 | 60 | 1016.7 |
| 20260507150529 | 61 | 331 | 1.0 | 8.0 | 0.00 | 0.10 | 0.01 | 65 | 1016.8 |
| 20260507150041 | 60 | 0 | 2.0 | 8.0 | 0.00 | 0.10 | 0.01 | 62 | 1016.8 |
| 20260507145528 | 59 | 50 | 2.0 | 9.0 | 0.00 | 0.10 | 0.01 | 68 | 1016.8 |
| 20260507145029 | 59 | 313 | 4.0 | 10.0 | 0.00 | 0.10 | 0.01 | 66 | 1016.8 |
| 20260507144549 | 59 | 51 | 3.0 | 10.0 | 0.00 | 0.10 | 0.01 | 65 | 1016.9 |
| 20260507144029 | 59 | 355 | 3.0 | 13.0 | 0.00 | 0.10 | 0.01 | 64 | 1016.9 |
| 20260507143528 | 59 | 355 | 3.0 | 13.0 | 0.00 | 0.10 | 0.01 | 67 | 1017.0 |
| 20260507143050 | 59 | 71 | 3.0 | 10.0 | 0.00 | 0.10 | 0.01 | 69 | 1017.0 |
| 20260507142529 | 58 | 337 | 2.0 | 7.0 | 0.00 | 0.10 | 0.01 | 70 | 1017.0 |
| 20260507142026 | 58 | 11 | 2.0 | 6.0 | 0.00 | 0.10 | 0.01 | 73 | 1016.7 |
| 20260507141552 | 57 | 42 | 2.0 | 9.0 | 0.00 | 0.10 | 0.01 | 71 | 1016.6 |
| 20260507141028 | 56 | 54 | 3.0 | 9.0 | 0.00 | 0.10 | 0.01 | 73 | 1016.7 |
| 20260507140527 | 56 | 355 | 4.0 | 9.0 | 0.00 | 0.10 | 0.01 | 72 | 1016.8 |
| 20260507140045 | 56 | 15 | 4.0 | 9.0 | 0.00 | 0.10 | 0.01 | 70 | 1016.7 |
| 20260507135529 | 56 | 335 | 3.0 | 8.0 | 0.00 | 0.10 | 0.01 | 73 | 1016.6 |
| 20260507135029 | 56 | 26 | 2.0 | 12.0 | 0.00 | 0.10 | 0.01 | 74 | 1016.6 |
| 20260507134552 | 56 | 304 | 3.0 | 12.0 | 0.00 | 0.10 | 0.01 | 74 | 1016.5 |
| 20260507134028 | 56 | 11 | 2.0 | 6.0 | 0.00 | 0.10 | 0.01 | 75 | 1016.4 |
| 20260507133529 | 56 | 355 | 2.0 | 6.0 | 0.00 | 0.10 | 0.01 | 76 | 1016.5 |
| 20260507133057 | 55 | 22 | 2.0 | 6.0 | 0.00 | 0.10 | 0.01 | 79 | 1016.4 |
| 20260507132529 | 55 | 49 | 2.0 | 4.0 | 0.00 | 0.10 | 0.01 | 79 | 1016.4 |
| 20260507132028 | 54 | 5 | 2.0 | 4.0 | 0.00 | 0.10 | 0.01 | 82 | 1016.4 |
| 20260507131553 | 54 | 68 | 1.0 | 9.0 | 0.00 | 0.10 | 0.01 | 82 | 1016.3 |
| 20260507131029 | 53 | 355 | 3.0 | 9.0 | 0.00 | 0.10 | 0.01 | 81 | 1016.3 |
| 20260507130529 | 53 | 28 | 2.0 | 6.0 | 0.00 | 0.10 | 0.01 | 84 | 1016.3 |
| 20260507130047 | 52 | 330 | 2.0 | 10.0 | 0.00 | 0.10 | 0.01 | 85 | 1016.5 |
| 20260507125530 | 52 | 335 | 2.0 | 10.0 | 0.00 | 0.11 | 0.01 | 88 | 1016.4 |
| 20260507125028 | 52 | 319 | 1.0 | 9.0 | 0.00 | 0.11 | 0.01 | 89 | 1016.4 |
| 20260507124550 | 51 | 355 | 3.0 | 9.0 | 0.00 | 0.11 | 0.01 | 88 | 1016.4 |
| 20260507124029 | 51 | 360 | 1.0 | 4.0 | 0.00 | 0.11 | 0.01 | 92 | 1016.3 |
| 20260507123529 | 50 | 0 | 1.0 | 3.0 | 0.00 | 0.11 | 0.01 | 93 | 1016.3 |
| 20260507123044 | 50 | 355 | 1.0 | 3.0 | 0.00 | 0.11 | 0.01 | 94 | 1016.2 |
| 20260507122529 | 49 | 0 | 1.0 | 6.0 | 0.00 | 0.11 | 0.01 | 95 | 1016.2 |
| 20260507122029 | 49 | 22 | 1.0 | 6.0 | 0.00 | 0.11 | 0.01 | 96 | 1016.2 |
| 20260507121543 | 48 | 317 | 1.0 | 3.0 | 0.00 | 0.11 | 0.01 | 98 | 1016.2 |
| 20260507121032 | 48 | 355 | 0.0 | 3.0 | 0.00 | 0.11 | 0.01 | 98 | 1016.1 |
| 20260507120529 | 47 | 0 | 0.0 | 2.0 | 0.00 | 0.11 | 0.01 | 98 | 1016.1 |
| 20260507120042 | 47 | 0 | 0.0 | 3.0 | 0.00 | 0.11 | 0.01 | 97 | 1016.1 |
| 20260507115529 | 46 | 0 | 0.0 | 4.0 | 0.00 | 0.14 | 0.01 | 97 | 1016.0 |
| 20260507115025 | 46 | 360 | 0.0 | 4.0 | 0.00 | 0.14 | 0.01 | 98 | 1015.9 |
| 20260507114541 | 46 | 0 | 0.0 | 2.0 | 0.00 | 0.14 | 0.01 | 97 | 1015.9 |
| 20260507114026 | 46 | 324 | 0.0 | 2.0 | 0.00 | 0.14 | 0.01 | 98 | 1015.8 |
| 20260507113526 | 45 | 0 | 0.0 | 1.0 | 0.00 | 0.14 | 0.01 | 97 | 1015.8 |
| 20260507113048 | 45 | 0 | 0.0 | 1.0 | 0.00 | 0.14 | 0.01 | 97 | 1015.9 |
| 20260507112529 | 45 | 0 | 0.0 | 1.0 | 0.00 | 0.14 | 0.01 | 97 | 1015.8 |
| 20260507112029 | 45 | 0 | 0.0 | 1.0 | 0.00 | 0.14 | 0.01 | 97 | 1015.7 |
| 20260507111547 | 45 | 0 | 0.0 | 1.0 | 0.00 | 0.14 | 0.01 | 97 | 1015.7 |
| 20260507111025 | 45 | 0 | 0.0 | 1.0 | 0.00 | 0.14 | 0.01 | 97 | 1015.5 |
| 20260507110528 | 45 | 302 | 0.0 | 1.0 | 0.00 | 0.14 | 0.01 | 97 | 1015.5 |
| 20260507110059 | 45 | 0 | 0.0 | 1.0 | 0.00 | 0.14 | 0.01 | 97 | 1015.5 |
| 20260507105529 | 45 | 0 | 0.0 | 1.0 | 0.00 | 0.28 | 0.01 | 97 | 1015.4 |
| 20260507105026 | 45 | 0 | 0.0 | 1.0 | 0.00 | 0.28 | 0.01 | 97 | 1015.4 |
| 20260507104543 | 45 | 0 | 0.0 | 1.0 | 0.00 | 0.28 | 0.01 | 96 | 1015.3 |
| 20260507104029 | 45 | 298 | 0.0 | 1.0 | 0.00 | 0.28 | 0.01 | 96 | 1015.3 |
| 20260507103528 | 45 | 0 | 0.0 | 1.0 | 0.00 | 0.28 | 0.01 | 97 | 1015.2 |
| 20260507103041 | 45 | 0 | 0.0 | 1.0 | 0.00 | 0.28 | 0.01 | 97 | 1015.1 |
| 20260507102528 | 45 | 0 | 0.0 | 3.0 | 0.00 | 0.28 | 0.01 | 97 | 1015.1 |
| 20260507102029 | 45 | 0 | 0.0 | 3.0 | 0.00 | 0.28 | 0.01 | 96 | 1015.1 |
| 20260507101549 | 45 | 0 | 0.0 | 3.0 | 0.00 | 0.28 | 0.01 | 96 | 1015.0 |
| 20260507101028 | 45 | 0 | 0.0 | 0.0 | 0.00 | 0.28 | 0.01 | 96 | 1015.0 |
| 20260507100528 | 45 | 0 | 0.0 | 0.0 | 0.00 | 0.28 | 0.01 | 96 | 1015.0 |
| 20260507100049 | 45 | 0 | 0.0 | 1.0 | 0.01 | 0.28 | 0.01 | 96 | 1014.9 |
| 20260507095530 | 46 | 0 | 0.0 | 1.0 | 0.01 | 0.30 | 0.01 | 96 | 1015.1 |
| 20260507095027 | 46 | 0 | 0.0 | 1.0 | 0.01 | 0.30 | 0.01 | 96 | 1015.1 |
| 20260507094553 | 46 | 0 | 0.0 | 0.0 | 0.01 | 0.30 | 0.01 | 96 | 1015.0 |
| 20260507094025 | 46 | 0 | 0.0 | 0.0 | 0.01 | 0.30 | 0.01 | 96 | 1015.1 |
| 20260507093529 | 46 | 0 | 0.0 | 0.0 | 0.01 | 0.30 | 0.01 | 96 | 1014.9 |
| 20260507093052 | 47 | 0 | 0.0 | 0.0 | 0.01 | 0.30 | 0.01 | 96 | 1015.0 |
| 20260507092533 | 47 | 0 | 0.0 | 0.0 | 0.01 | 0.30 | 0.01 | 97 | 1014.9 |
| 20260507092029 | 47 | 0 | 0.0 | 0.0 | 0.01 | 0.30 | 0.01 | 97 | 1015.1 |
| 20260507091559 | 47 | 0 | 0.0 | 1.0 | 0.01 | 0.30 | 0.01 | 97 | 1014.9 |
| 20260507091032 | 47 | 0 | 0.0 | 1.0 | 0.01 | 0.30 | 0.01 | 96 | 1014.9 |
| 20260507090529 | 47 | 0 | 0.0 | 1.0 | 0.01 | 0.30 | 0.01 | 96 | 1015.0 |
| 20260507090046 | 47 | 0 | 0.0 | 1.0 | 0.00 | 0.29 | 0.00 | 96 | 1015.0 |
| 20260507085529 | 47 | 0 | 0.0 | 1.0 | 0.00 | 0.36 | 0.00 | 96 | 1014.7 |
| 20260507085029 | 47 | 0 | 0.0 | 1.0 | 0.00 | 0.36 | 0.00 | 96 | 1014.8 |
| 20260507084553 | 48 | 0 | 0.0 | 1.0 | 0.00 | 0.36 | 0.00 | 96 | 1014.9 |
| 20260507084029 | 48 | 0 | 0.0 | 1.0 | 0.00 | 0.36 | 0.00 | 96 | 1014.9 |
| 20260507083529 | 48 | 0 | 0.0 | 1.0 | 0.00 | 0.36 | 0.00 | 96 | 1015.0 |
| 20260507083048 | 48 | 0 | 0.0 | 1.0 | 0.00 | 0.36 | 0.00 | 96 | 1015.0 |
| 20260507082528 | 48 | 0 | 0.0 | 1.0 | 0.00 | 0.36 | 0.00 | 96 | 1015.1 |
| 20260507082028 | 48 | 0 | 0.0 | 0.0 | 0.00 | 0.36 | 0.00 | 96 | 1014.9 |
| 20260507081548 | 48 | 0 | 0.0 | 1.0 | 0.00 | 0.36 | 0.00 | 96 | 1014.8 |
| 20260507081028 | 49 | 0 | 0.0 | 1.0 | 0.00 | 0.36 | 0.00 | 96 | 1014.7 |
| 20260507080528 | 49 | 0 | 0.0 | 0.0 | 0.00 | 0.36 | 0.00 | 96 | 1014.7 |
| 20260507080044 | 49 | 0 | 0.0 | 0.0 | 0.00 | 0.36 | 0.00 | 96 | 1014.6 |
| 20260507075528 | 49 | 0 | 0.0 | 0.0 | 0.00 | 0.43 | 0.00 | 97 | 1014.6 |
| 20260507075028 | 49 | 0 | 0.0 | 0.0 | 0.00 | 0.43 | 0.00 | 97 | 1014.7 |
| 20260507074546 | 49 | 0 | 0.0 | 1.0 | 0.00 | 0.43 | 0.00 | 97 | 1014.7 |
| 20260507074028 | 49 | 0 | 0.0 | 1.0 | 0.00 | 0.43 | 0.00 | 97 | 1014.6 |
| 20260507073528 | 49 | 0 | 0.0 | 0.0 | 0.00 | 0.43 | 0.00 | 97 | 1014.9 |
| 20260507073043 | 49 | 0 | 0.0 | 0.0 | 0.00 | 0.43 | 0.00 | 97 | 1014.9 |
| 20260507072529 | 49 | 0 | 0.0 | 0.0 | 0.00 | 0.43 | 0.00 | 97 | 1015.0 |
| 20260507072026 | 49 | 0 | 0.0 | 0.0 | 0.00 | 0.43 | 0.00 | 97 | 1014.9 |
| 20260507071541 | 49 | 0 | 0.0 | 2.0 | 0.00 | 0.43 | 0.00 | 97 | 1014.9 |
| 20260507071029 | 50 | 0 | 0.0 | 2.0 | 0.00 | 0.43 | 0.00 | 97 | 1015.1 |
| 20260507070529 | 50 | 326 | 0.0 | 2.0 | 0.00 | 0.43 | 0.00 | 97 | 1014.9 |
| 20260507070057 | 50 | 0 | 0.0 | 0.0 | 0.00 | 0.43 | 0.00 | 97 | 1015.3 |
| 20260507065528 | 50 | 0 | 0.0 | 0.0 | 0.00 | 0.54 | 0.00 | 97 | 1015.3 |
| 20260507065028 | 50 | 0 | 0.0 | 0.0 | 0.00 | 0.54 | 0.00 | 97 | 1015.2 |
| 20260507064549 | 50 | 0 | 0.0 | 0.0 | 0.00 | 0.54 | 0.00 | 97 | 1015.3 |
| 20260507064030 | 50 | 0 | 0.0 | 0.0 | 0.00 | 0.54 | 0.00 | 97 | 1015.3 |
| 20260507063528 | 50 | 0 | 0.0 | 0.0 | 0.00 | 0.54 | 0.00 | 97 | 1015.1 |
| 20260507063051 | 50 | 0 | 0.0 | 0.0 | 0.00 | 0.54 | 0.00 | 97 | 1014.9 |
| 20260507062527 | 50 | 0 | 0.0 | 0.0 | 0.00 | 0.54 | 0.00 | 97 | 1014.9 |
| 20260507062029 | 50 | 0 | 0.0 | 0.0 | 0.00 | 0.54 | 0.00 | 97 | 1014.9 |
| 20260507061548 | 50 | 0 | 0.0 | 0.0 | 0.00 | 0.54 | 0.00 | 97 | 1015.0 |
| 20260507061029 | 50 | 0 | 0.0 | 0.0 | 0.00 | 0.54 | 0.00 | 97 | 1014.9 |
| 20260507060530 | 50 | 0 | 0.0 | 0.0 | 0.00 | 0.54 | 0.00 | 97 | 1014.7 |
| 20260507060100 | 50 | 0 | 0.0 | 0.0 | 0.00 | 0.54 | 0.00 | 97 | 1014.8 |
| 20260507055527 | 50 | 0 | 0.0 | 0.0 | 0.00 | 0.57 | 0.00 | 97 | 1014.6 |
| 20260507055027 | 50 | 0 | 0.0 | 0.0 | 0.00 | 0.57 | 0.00 | 97 | 1014.7 |
| 20260507054547 | 50 | 0 | 0.0 | 0.0 | 0.00 | 0.57 | 0.00 | 97 | 1014.8 |
| 20260507054029 | 50 | 0 | 0.0 | 0.0 | 0.00 | 0.57 | 0.00 | 96 | 1014.9 |
| 20260507053530 | 50 | 0 | 0.0 | 0.0 | 0.00 | 0.57 | 0.00 | 96 | 1015.0 |
| 20260507053050 | 50 | 0 | 0.0 | 0.0 | 0.00 | 0.57 | 0.00 | 96 | 1015.2 |
| 20260507052527 | 50 | 0 | 0.0 | 1.0 | 0.00 | 0.57 | 0.00 | 96 | 1015.0 |
| 20260507052027 | 50 | 0 | 0.0 | 1.0 | 0.00 | 0.57 | 0.00 | 96 | 1015.0 |
| 20260507051542 | 50 | 0 | 0.0 | 1.0 | 0.00 | 0.57 | 0.00 | 96 | 1015.2 |
| 20260507051028 | 50 | 0 | 0.0 | 1.0 | 0.00 | 0.57 | 0.00 | 96 | 1015.4 |
| 20260507050526 | 50 | 0 | 0.0 | 0.0 | 0.00 | 0.57 | 0.00 | 96 | 1015.5 |
| 20260507050043 | 51 | 0 | 0.0 | 0.0 | 0.00 | 0.57 | 0.00 | 96 | 1015.4 |
| 20260507045527 | 51 | 0 | 0.0 | 2.0 | 0.00 | 0.57 | 0.57 | 96 | 1015.4 |
| 20260507045028 | 51 | 0 | 0.0 | 2.0 | 0.00 | 0.57 | 0.57 | 96 | 1015.3 |
| 20260507044541 | 51 | 326 | 0.0 | 2.0 | 0.00 | 0.57 | 0.57 | 96 | 1015.3 |
| 20260507044029 | 51 | 0 | 0.0 | 1.0 | 0.00 | 0.57 | 0.57 | 96 | 1015.6 |
| 20260507043529 | 51 | 0 | 0.0 | 1.0 | 0.00 | 0.57 | 0.57 | 96 | 1015.6 |
| 20260507043042 | 51 | 0 | 0.0 | 0.0 | 0.00 | 0.57 | 0.57 | 96 | 1015.8 |
| 20260507042527 | 51 | 0 | 0.0 | 0.0 | 0.00 | 0.57 | 0.57 | 96 | 1015.5 |
| 20260507042026 | 51 | 0 | 0.0 | 0.0 | 0.00 | 0.57 | 0.57 | 96 | 1015.6 |
| 20260507041550 | 51 | 0 | 0.0 | 0.0 | 0.00 | 0.57 | 0.57 | 96 | 1015.3 |
| 20260507041027 | 51 | 0 | 0.0 | 0.0 | 0.00 | 0.57 | 0.57 | 96 | 1015.0 |
| 20260507040529 | 51 | 0 | 0.0 | 0.0 | 0.00 | 0.57 | 0.57 | 96 | 1015.1 |
| 20260507040049 | 51 | 0 | 0.0 | 0.0 | 0.00 | 0.57 | 0.57 | 96 | 1015.0 |
| 20260507035526 | 52 | 0 | 0.0 | 1.0 | 0.00 | 0.57 | 0.57 | 96 | 1015.2 |
| 20260507035028 | 52 | 0 | 0.0 | 1.0 | 0.00 | 0.57 | 0.57 | 96 | 1015.2 |
| 20260507034557 | 52 | 0 | 0.0 | 1.0 | 0.00 | 0.57 | 0.57 | 96 | 1015.0 |
| 20260507034030 | 52 | 0 | 0.0 | 1.0 | 0.00 | 0.57 | 0.57 | 96 | 1015.0 |
| 20260507033530 | 52 | 0 | 0.0 | 1.0 | 0.00 | 0.57 | 0.57 | 96 | 1015.0 |
| 20260507033049 | 52 | 0 | 0.0 | 1.0 | 0.00 | 0.57 | 0.57 | 96 | 1015.3 |
| 20260507032529 | 52 | 0 | 0.0 | 1.0 | 0.00 | 0.57 | 0.57 | 96 | 1015.3 |
| 20260507032027 | 52 | 0 | 0.0 | 1.0 | 0.00 | 0.57 | 0.57 | 96 | 1015.2 |
| 20260507031543 | 52 | 0 | 0.0 | 0.0 | 0.00 | 0.57 | 0.57 | 96 | 1015.2 |
| 20260507031029 | 52 | 0 | 0.0 | 0.0 | 0.00 | 0.57 | 0.57 | 96 | 1015.1 |
| 20260507030527 | 52 | 0 | 0.0 | 0.0 | 0.00 | 0.57 | 0.57 | 96 | 1015.0 |
| 20260507030041 | 52 | 0 | 0.0 | 2.0 | 0.00 | 0.57 | 0.57 | 96 | 1015.1 |
| 20260507025527 | 52 | 0 | 0.0 | 2.0 | 0.00 | 0.57 | 0.57 | 96 | 1014.8 |
| 20260507025027 | 52 | 0 | 0.0 | 2.0 | 0.00 | 0.57 | 0.57 | 96 | 1014.7 |
| 20260507024556 | 52 | 0 | 0.0 | 4.0 | 0.00 | 0.57 | 0.57 | 96 | 1014.6 |
| 20260507024027 | 52 | 0 | 0.0 | 4.0 | 0.00 | 0.57 | 0.57 | 96 | 1014.4 |
| 20260507023526 | 52 | 0 | 1.0 | 4.0 | 0.00 | 0.57 | 0.57 | 96 | 1014.3 |
| 20260507023048 | 52 | 0 | 1.0 | 3.0 | 0.00 | 0.57 | 0.57 | 96 | 1014.6 |
| 20260507022530 | 52 | 0 | 0.0 | 1.0 | 0.00 | 0.57 | 0.57 | 96 | 1015.4 |
| 20260507022032 | 52 | 0 | 0.0 | 3.0 | 0.00 | 0.57 | 0.57 | 96 | 1015.6 |
| 20260507021550 | 52 | 0 | 0.0 | 3.0 | 0.00 | 0.57 | 0.57 | 96 | 1015.0 |
| 20260507021028 | 52 | 319 | 0.0 | 2.0 | 0.01 | 0.57 | 0.57 | 96 | 1015.1 |
| 20260507020527 | 52 | 313 | 0.0 | 2.0 | 0.01 | 0.57 | 0.57 | 96 | 1015.2 |
| 20260507020051 | 52 | 0 | 0.0 | 0.0 | 0.01 | 0.57 | 0.57 | 96 | 1015.6 |
| 20260507015528 | 52 | 0 | 0.0 | 0.0 | 0.01 | 0.58 | 0.57 | 95 | 1015.2 |
| 20260507015027 | 52 | 0 | 0.0 | 0.0 | 0.01 | 0.58 | 0.57 | 95 | 1015.3 |
| 20260507014544 | 52 | 0 | 0.0 | 0.0 | 0.01 | 0.58 | 0.57 | 96 | 1015.1 |
| 20260507014027 | 52 | 0 | 0.0 | 0.0 | 0.01 | 0.58 | 0.57 | 95 | 1014.7 |
| 20260507013527 | 52 | 0 | 0.0 | 0.0 | 0.01 | 0.58 | 0.57 | 95 | 1015.0 |
| 20260507013048 | 52 | 0 | 0.0 | 1.0 | 0.01 | 0.58 | 0.57 | 95 | 1015.3 |
| 20260507012531 | 53 | 0 | 0.0 | 1.0 | 0.01 | 0.58 | 0.57 | 95 | 1015.3 |
| 20260507012030 | 53 | 0 | 0.0 | 2.0 | 0.01 | 0.58 | 0.57 | 96 | 1015.9 |
| 20260507011548 | 53 | 0 | 0.0 | 2.0 | 0.01 | 0.58 | 0.57 | 96 | 1016.0 |
| 20260507011029 | 53 | 262 | 0.0 | 2.0 | 0.00 | 0.57 | 0.56 | 95 | 1016.0 |
| 20260507010529 | 53 | 0 | 0.0 | 2.0 | 0.00 | 0.57 | 0.56 | 95 | 1016.1 |
| 20260507010105 | 53 | 355 | 0.0 | 2.0 | 0.00 | 0.57 | 0.56 | 95 | 1015.5 |
| 20260507005530 | 53 | 0 | 0.0 | 1.0 | 0.00 | 0.58 | 0.56 | 95 | 1014.7 |
| 20260507005027 | 53 | 0 | 0.0 | 1.0 | 0.00 | 0.58 | 0.56 | 95 | 1014.2 |
| 20260507004545 | 53 | 0 | 0.0 | 0.0 | 0.00 | 0.58 | 0.56 | 95 | 1014.1 |
| 20260507004031 | 53 | 0 | 0.0 | 1.0 | 0.00 | 0.58 | 0.56 | 95 | 1014.1 |
| 20260507003528 | 53 | 0 | 0.0 | 2.0 | 0.00 | 0.58 | 0.56 | 95 | 1013.9 |
| 20260507003041 | 53 | 0 | 0.0 | 2.0 | 0.01 | 0.58 | 0.56 | 95 | 1014.0 |
| 20260507002529 | 53 | 348 | 0.0 | 2.0 | 0.01 | 0.58 | 0.56 | 95 | 1013.9 |
| 20260507002027 | 53 | 0 | 0.0 | 2.0 | 0.02 | 0.58 | 0.56 | 95 | 1014.1 |
| 20260507001546 | 53 | 0 | 0.0 | 3.0 | 0.02 | 0.58 | 0.56 | 94 | 1014.0 |
| 20260507001029 | 53 | 0 | 1.0 | 5.0 | 0.03 | 0.58 | 0.56 | 94 | 1013.8 |
| 20260507000529 | 53 | 0 | 0.0 | 5.0 | 0.03 | 0.58 | 0.56 | 94 | 1013.9 |
| 20260507000050 | 53 | 337 | 0.0 | 2.0 | 0.04 | 0.58 | 0.56 | 94 | 1013.8 |
| 20260506235530 | 53 | 345 | 0.0 | 6.0 | 0.04 | 0.61 | 0.56 | 93 | 1013.9 |
| 20260506235029 | 53 | 0 | 1.0 | 6.0 | 0.05 | 0.61 | 0.56 | 93 | 1013.3 |
| 20260506234546 | 53 | 65 | 2.0 | 4.0 | 0.06 | 0.61 | 0.56 | 93 | 1012.7 |
| 20260506234029 | 53 | 84 | 1.0 | 4.0 | 0.06 | 0.61 | 0.56 | 93 | 1013.3 |
| 20260506233527 | 54 | 323 | 1.0 | 4.0 | 0.07 | 0.61 | 0.56 | 93 | 1013.3 |
| 20260506233057 | 54 | 15 | 1.0 | 4.0 | 0.07 | 0.60 | 0.55 | 92 | 1013.6 |
| 20260506232527 | 54 | 346 | 0.0 | 3.0 | 0.07 | 0.60 | 0.55 | 92 | 1014.2 |
| 20260506232028 | 54 | 0 | 0.0 | 4.0 | 0.06 | 0.58 | 0.54 | 92 | 1014.4 |
| 20260506231545 | 54 | 0 | 1.0 | 4.0 | 0.06 | 0.58 | 0.54 | 91 | 1014.2 |
| 20260506231027 | 54 | 0 | 1.0 | 4.0 | 0.05 | 0.58 | 0.52 | 91 | 1014.4 |
| 20260506230527 | 55 | 0 | 0.0 | 4.0 | 0.05 | 0.58 | 0.52 | 91 | 1014.6 |
| 20260506230045 | 55 | 0 | 0.0 | 4.0 | 0.04 | 0.57 | 0.52 | 91 | 1014.9 |
| 20260506225527 | 55 | 318 | 0.0 | 3.0 | 0.04 | 0.64 | 0.52 | 90 | 1015.0 |
| 20260506225030 | 56 | 0 | 0.0 | 3.0 | 0.03 | 0.63 | 0.51 | 90 | 1015.0 |
| 20260506224541 | 56 | 319 | 0.0 | 3.0 | 0.02 | 0.62 | 0.50 | 89 | 1014.6 |
| 20260506224029 | 56 | 0 | 0.0 | 3.0 | 0.02 | 0.62 | 0.50 | 89 | 1014.5 |
| 20260506223529 | 56 | 334 | 0.0 | 5.0 | 0.01 | 0.61 | 0.49 | 88 | 1014.4 |
| 20260506223047 | 56 | 339 | 0.0 | 5.0 | 0.00 | 0.60 | 0.48 | 87 | 1014.3 |
| 20260506222530 | 57 | 331 | 0.0 | 2.0 | 0.00 | 0.60 | 0.48 | 87 | 1014.2 |
| 20260506222030 | 57 | 321 | 0.0 | 2.0 | 0.00 | 0.60 | 0.48 | 86 | 1014.3 |
| 20260506221548 | 57 | 0 | 0.0 | 2.0 | 0.00 | 0.60 | 0.48 | 86 | 1014.2 |
| 20260506221029 | 57 | 0 | 0.0 | 3.0 | 0.00 | 0.60 | 0.48 | 85 | 1014.2 |
| 20260506220527 | 57 | 333 | 0.0 | 3.0 | 0.00 | 0.60 | 0.48 | 84 | 1014.0 |
| 20260506220050 | 58 | 319 | 0.0 | 3.0 | 0.00 | 0.60 | 0.48 | 84 | 1014.0 |
| 20260506215527 | 58 | 0 | 1.0 | 3.0 | 0.00 | 0.60 | 0.48 | 83 | 1014.0 |
| 20260506215028 | 58 | 0 | 0.0 | 3.0 | 0.00 | 0.60 | 0.48 | 83 | 1014.2 |
| 20260506214543 | 58 | 0 | 1.0 | 3.0 | 0.00 | 0.60 | 0.48 | 82 | 1014.3 |
| 20260506214031 | 58 | 0 | 1.0 | 2.0 | 0.00 | 0.60 | 0.48 | 82 | 1014.5 |
| 20260506213528 | 58 | 296 | 0.0 | 5.0 | 0.00 | 0.60 | 0.48 | 81 | 1014.4 |
| 20260506213041 | 58 | 0 | 1.0 | 6.0 | 0.00 | 0.60 | 0.48 | 81 | 1014.4 |
| 20260506212532 | 58 | 327 | 2.0 | 6.0 | 0.00 | 0.60 | 0.48 | 81 | 1014.0 |
| 20260506212029 | 58 | 350 | 0.0 | 5.0 | 0.00 | 0.60 | 0.48 | 81 | 1013.7 |
| 20260506211548 | 59 | 329 | 1.0 | 8.0 | 0.00 | 0.60 | 0.48 | 82 | 1013.6 |
| 20260506211029 | 59 | 341 | 2.0 | 8.0 | 0.00 | 0.60 | 0.48 | 81 | 1013.7 |
| 20260506210530 | 59 | 321 | 1.0 | 5.0 | 0.00 | 0.60 | 0.48 | 83 | 1013.3 |
| 20260506210048 | 59 | 333 | 1.0 | 5.0 | 0.00 | 0.60 | 0.48 | 83 | 1013.2 |
| 20260506205529 | 59 | 0 | 1.0 | 3.0 | 0.00 | 0.60 | 0.48 | 83 | 1013.4 |
| 20260506205028 | 59 | 0 | 1.0 | 5.0 | 0.00 | 0.60 | 0.48 | 82 | 1013.3 |
| 20260506204548 | 59 | 355 | 2.0 | 5.0 | 0.00 | 0.60 | 0.48 | 80 | 1013.5 |
| 20260506204029 | 59 | 0 | 0.0 | 2.0 | 0.00 | 0.60 | 0.48 | 81 | 1014.1 |
| 20260506203530 | 59 | 219 | 0.0 | 2.0 | 0.00 | 0.60 | 0.48 | 80 | 1014.3 |
| 20260506203047 | 59 | 298 | 0.0 | 5.0 | 0.00 | 0.60 | 0.48 | 80 | 1014.5 |
| 20260506202532 | 59 | 0 | 1.0 | 5.0 | 0.00 | 0.60 | 0.48 | 80 | 1014.2 |
| 20260506202030 | 59 | 0 | 1.0 | 5.0 | 0.00 | 0.60 | 0.48 | 80 | 1013.7 |
| 20260506201547 | 60 | 299 | 1.0 | 4.0 | 0.00 | 0.60 | 0.48 | 80 | 1014.0 |
| 20260506201029 | 60 | 286 | 1.0 | 4.0 | 0.00 | 0.60 | 0.48 | 80 | 1014.1 |
| 20260506200529 | 60 | 44 | 1.0 | 5.0 | 0.00 | 0.60 | 0.48 | 80 | 1013.7 |
| 20260506200043 | 60 | 5 | 2.0 | 9.0 | 0.00 | 0.60 | 0.48 | 80 | 1013.7 |
| 20260506195527 | 60 | 294 | 1.0 | 9.0 | 0.00 | 0.60 | 0.48 | 80 | 1013.7 |
| 20260506195032 | 60 | 315 | 1.0 | 9.0 | 0.00 | 0.60 | 0.48 | 80 | 1013.7 |
| 20260506194548 | 60 | 280 | 1.0 | 6.0 | 0.00 | 0.60 | 0.48 | 83 | 1013.9 |
| 20260506194030 | 60 | 355 | 2.0 | 6.0 | 0.00 | 0.60 | 0.48 | 81 | 1013.2 |
| 20260506193529 | 60 | 307 | 1.0 | 6.0 | 0.00 | 0.60 | 0.48 | 81 | 1013.5 |
| 20260506193048 | 60 | 355 | 2.0 | 5.0 | 0.00 | 0.60 | 0.48 | 79 | 1013.4 |
| 20260506192529 | 60 | 0 | 1.0 | 6.0 | 0.00 | 0.60 | 0.48 | 81 | 1014.0 |
| 20260506192029 | 60 | 0 | 1.0 | 10.0 | 0.00 | 0.60 | 0.48 | 81 | 1014.1 |
| 20260506191547 | 60 | 360 | 3.0 | 10.0 | 0.00 | 0.60 | 0.48 | 82 | 1014.0 |
| 20260506191030 | 60 | 284 | 2.0 | 6.0 | 0.00 | 0.60 | 0.48 | 85 | 1013.7 |
| 20260506190529 | 59 | 0 | 1.0 | 6.0 | 0.00 | 0.60 | 0.48 | 87 | 1013.4 |
| 20260506190047 | 58 | 339 | 2.0 | 4.0 | 0.00 | 0.60 | 0.48 | 86 | 1013.8 |
| 20260506185527 | 57 | 318 | 1.0 | 3.0 | 0.00 | 0.60 | 0.48 | 85 | 1014.0 |
| 20260506185029 | 57 | 355 | 0.0 | 2.0 | 0.00 | 0.60 | 0.48 | 86 | 1014.0 |
| 20260506184546 | 57 | 5 | 1.0 | 2.0 | 0.00 | 0.60 | 0.48 | 85 | 1014.1 |
| 20260506184029 | 57 | 0 | 0.0 | 2.0 | 0.00 | 0.60 | 0.48 | 86 | 1014.5 |
| 20260506183530 | 57 | 0 | 0.0 | 2.0 | 0.00 | 0.60 | 0.48 | 85 | 1014.6 |
| 20260506183044 | 57 | 226 | 0.0 | 3.0 | 0.00 | 0.60 | 0.48 | 88 | 1014.7 |
| 20260506182529 | 56 | 0 | 0.0 | 3.0 | 0.00 | 0.60 | 0.48 | 88 | 1015.0 |
| 20260506182031 | 56 | 0 | 0.0 | 2.0 | 0.00 | 0.60 | 0.48 | 89 | 1014.7 |
| 20260506181540 | 56 | 0 | 0.0 | 3.0 | 0.00 | 0.60 | 0.48 | 90 | 1014.9 |
| 20260506181030 | 55 | 0 | 0.0 | 3.0 | 0.00 | 0.60 | 0.48 | 90 | 1014.7 |
| 20260506180532 | 55 | 355 | 1.0 | 5.0 | 0.00 | 0.60 | 0.48 | 88 | 1014.7 |
| 20260506180048 | 55 | 13 | 1.0 | 8.0 | 0.00 | 0.60 | 0.48 | 88 | 1014.4 |
| 20260506175529 | 55 | 0 | 2.0 | 8.0 | 0.00 | 0.60 | 0.48 | 88 | 1014.3 |
| 20260506175027 | 55 | 298 | 1.0 | 6.0 | 0.00 | 0.60 | 0.48 | 90 | 1014.1 |
| 20260506174555 | 55 | 302 | 2.0 | 6.0 | 0.00 | 0.60 | 0.48 | 91 | 1014.0 |
| 20260506174029 | 55 | 317 | 2.0 | 6.0 | 0.00 | 0.60 | 0.48 | 92 | 1013.8 |
| 20260506173529 | 54 | 343 | 2.0 | 8.0 | 0.00 | 0.60 | 0.48 | 94 | 1013.7 |
| 20260506173101 | 53 | 309 | 3.0 | 8.0 | 0.00 | 0.60 | 0.48 | 93 | 1013.5 |
| 20260506172529 | 53 | 346 | 1.0 | 8.0 | 0.00 | 0.60 | 0.48 | 95 | 1013.4 |